Hourly Data Report for July 29, 2021

ST. JOHN'S INTL A
NEWFOUNDLAND
Current Station Operator: NAVCAN

47°37'07.000" N
52°45'09.000" W
140.50 m
8403505
71801
YYT

Download Data

Hourly Data (July 2021)
Hourly Data Report for July 29, 2021
TIME
LST
Temp Definition
°C
Dew Point Definition
°C
Rel Hum Definition
%
Precip. Amount Definition
mm

Wind Dir Definition
10's deg

Wind Spd Definition
km/h
Visibility Definition
km
Stn Press Definition
kPa
Hmdx Definition


Wind Chill Definition


Weather Definition


00:30 19.1 18.3 95   25 16 24.1 99.44     LegendNANA
01:30 19.3 18.6 95   24 18 24.1 99.40     LegendNANA
02:30 19.1 18.2 95   24 17 24.1 99.38     Mostly Cloudy
03:30 18.9 18.1 95   28 12 24.1 99.34     LegendNANA
04:30 18.1 17.6 97   26 16 24.1 99.33     LegendNANA
05:30 17.3 16.7 97   29 17 24.1 99.33     Mostly Cloudy
06:30 16.1 15.8 98   26 18 12.9 99.30     LegendNANA
07:30 16.3 15.4 95   28 8 24.1 99.29     LegendNANA
08:30 17.3 15.7 90   20 5 24.1 99.31     Cloudy
09:30 17.6 15.8 89   26 7 24.1 99.31     LegendNANA
10:30 16.8 15.5 92   29 15 24.1 99.29     LegendNANA
11:30 18.1 15.7 86   29 25 24.1 99.24     Cloudy
12:30 17.4 15.5 88   28 25 24.1 99.23     LegendNANA
13:30 20.4 15.6 74   28 25 24.1 99.22 25   LegendNANA
14:30 21.1 13.4 61   27 31 24.1 99.21     Mostly Cloudy
15:30 21.2 11.8 54   29 31 24.1 99.21     LegendNANA
16:30 21.4 11.6 53   28 23 24.1 99.22     LegendNANA
17:30 19.8 11.0 56   26 32 24.1 99.25     Mainly Clear
18:30 17.9 9.9 59   28 31 24.1 99.31     LegendNANA
19:30 15.9 9.3 64   28 22 24.1 99.37     LegendNANA
20:30 14.8 10.0 73   28 25 24.1 99.45     Mainly Clear
21:30 14.1 10.7 80   28 26 24.1 99.51     LegendNANA
22:30 13.7 11.3 85   28 25 24.1 99.58     LegendNANA
23:30 13.3 11.1 87   28 24 24.1 99.62     Clear

Notes on Data Quality.

Legend

  • E = Estimated
  • M = Missing
  • NA = Not Available*
  • [empty] = Indicates an unobserved value
Date modified: